Terminal Aerodrome Forecast
Issued by NWS Des Moines, IA

Home | Current Version | Previous Version | Text Only | Print | Product List | Glossary On
Versions: 1 2 3 4 5 6 7 8 9 10 11 12 13 14 15 16 17 18 19 20 21 22
000
FTUS43 KDMX 282147 AAB
TAFDSM
TAF AMD
KDSM 282147Z 2822/2918 18007KT P6SM VCTS SCT035 BKN060CB
     FM290000 11003KT P6SM SCT150
     FM291600 15006KT P6SM SCT035=

USA.gov is the U.S. government's official web portal to all federal, state and local government web resources and services.